Tracking 19644 objects as of 25-Apr-2019
HD Live streaming from Space Station
objects crossing your sky now

COSMOS 921 DEB

Track COSMOS 921 DEB now!
10-day predictions


NORAD ID: 39690
Int'l Code: 1977-055C
Perigee: 546.7 km
Apogee: 587.6 km
Inclination: 75.8 °
Period: 95.9 minutes
Semi major axis: 6938 km
RCS: Unknown
Launch date: June 24, 1977
Source: Commonwealth of Independent States (former USSR) (CIS)
Launch site: PLESETSK MISSILE AND SPACE COMPLEX (PKMTR)

Note: This is SATELLITE DEBRIS
aabbcc
Your satellite tracking list
Your tracking list is empty




NASA's NSSDC Master Catalog

Two Line Element Set (TLE):
1 39690U 77055C   19114.34832237 +.00000281 +00000-0 +22845-4 0  9995
2 39690 075.8278 124.3383 0029495 128.4994 289.8156 15.02232008274809
Source of the keplerian elements: AFSPC